Miscellaneous Local Product
Issued by NWS Hastings, NE

Home | Current Version | Previous Version | Text Only | Print | Product List | Glossary On
Versions: 1 2 3 4 5 6 7 8 9 10 11 12 13 14 15 16 17 18 19 20 21 22 23 24 25 26 27 28 29 30 31 32 33 34 35 36 37 38 39 40 41 42 43 44 45 46 47 48 49 50
140
AXUS43 KGID 232302
MISGRI

GID CWA HOURLY WEATHER ROUNDUP
NATIONAL WEATHER SERVICE HASTINGS NE
600 PM CDT MON OCT 23 2017

NOTE: "FAIR" INDICATES FEW OR NO CLOUDS BELOW 12,000 FEET WITH NO
SIGNIFICANT WEATHER AND/OR OBSTRUCTIONS TO VISIBILITY.

...SOUTH CENTRAL NEBRASKA...

CITY           SKY/WX    TMP DP  RH WIND       PRES   REMARKS
GRAND ISLAND   PTCLDY    58  30  34 NW26G35   30.17R
KEARNEY        CLEAR     57  27  31 N22G36    30.21R
HASTINGS       CLEAR     58  25  28 NW29G38   30.18R
ORD            MOCLDY    56  27  32 NW25G39   30.18R
YORK           PTCLDY    55  30  38 NW21G43   30.13R
AURORA         PTCLDY    57  28  32 N24G36    30.16R
LEXINGTON      PTCLDY    58  25  28 N18G26    30.24S
HOLDREGE       PTCLDY    57  29  34 N17G26    30.22R
HEBRON         MOCLDY    63  25  23 NW21G30   30.14R

...NEBRASKA PANHANDLE...

CITY           SKY/WX    TMP DP  RH WIND       PRES   REMARKS
CHADRON        CLEAR     57  13  17 NW20G33   30.36R
ALLIANCE       CLEAR     53  15  22 NW31G41   30.35R
SCOTTSBLUFF    CLEAR     57  16  20 NW25G40   30.39R
SIDNEY         CLEAR     53  18  25 N28G36    30.38R

...WESTERN AND NORTH CENTRAL NEBRASKA...

CITY           SKY/WX    TMP DP  RH WIND       PRES   REMARKS
VALENTINE      PTCLDY    57  22  25 NW32G39   30.23R
AINSWORTH      PTCLDY    55  27  34 NW28G43   30.22S
ONEILL         MOCLDY    50  35  55 NW18G28   30.18R
BROKEN BOW     CLOUDY    54  30  40 N18       30.22S
IMPERIAL       CLEAR     58  15  18 N29G40    30.33R
NORTH PLATTE   CLEAR     58  20  22 N25G33    30.26S
MCCOOK         CLEAR     61  16  17 N32G40    30.26R

...EASTERN NEBRASKA...

CITY           SKY/WX    TMP DP  RH WIND       PRES   REMARKS
NORFOLK        PTCLDY    54  30  40 NW28G37   30.10R
SO SIOUX CITY  MOCLDY    55  29  36 NW25G36   30.04R
TEKAMAH        PTCLDY    56  26  31 NW26G36   30.05R
COLUMBUS       CLEAR     56  29  35 NW22G32   30.11R
ALBION         CLEAR     55  32  42 NW17G25   30.13F
OMAHA EPPLEY   PTCLDY    57  32  38 NW26G43   30.03R
OFFUTT AFB     MOCLDY    57  31  37 NW21G31   30.04R
MILLARD        PTCLDY    58  33  38 NW18G31   30.06R
LINCOLN        PTCLDY    60  29  30 MISG      30.09R
NEBRASKA CITY  MOCLDY    59  31  34 N30G41    30.04R
BEATRICE       CLEAR     61  30  31 N29G41    30.10R
FALLS CITY     PTCLDY    60  29  30 NW24G38   30.02R

...NORTHERN KANSAS...

CITY           SKY/WX    TMP DP  RH WIND       PRES   REMARKS
GOODLAND       CLEAR     57  17  21 N24G39    30.33R
HILL CITY      CLEAR     63  18  17 N23G40    30.25R
NORTON         CLEAR     61   7  11 NW16G33   30.24S
PHILLIPSBURG   CLEAR     63  16  16 NW21G30   30.22S
SMITH CENTER   CLEAR     61  27  27 N18G33    30.20R
HAYS           CLEAR     64  18  17 N20G28    30.22R
RUSSELL        CLEAR     64  21  19 NW23G32   30.19R
CONCORDIA      CLEAR     63  24  22 NW29G41   30.14R
SALINA         PTCLDY    66  26  22 NW23G35   30.14S
TOPEKA         CLEAR     64  30  27 NW28G35   30.04R



USA.gov is the U.S. government's official web portal to all federal, state and local government web resources and services.